This demonstration page uses our WeatherBlox Daily Observations layout. Learn more.

38.88101, -77.10428

Hourly Observations for August 30, 2016

Temp ( °F °C ) Dew Point ( °F °C ) Humidity (%) Winds ( mph kmh ) Pressure ( in mb ) Visibility ( mi km ) Precip ( " mm )
12:52 am 00:52 Partly Cloudy 81 27.2 67 19.4 62 62 NE 13 20 30.12 1020 10 16.09344 0 0
1:52 am 01:52 Mostly Cloudy 80 26.7 65 18.3 60 60 NE 12 19 30.12 1020 10 16.09344 0 0
2:52 am 02:52 Partly Cloudy 79 26.1 64 17.8 60 60 NE 9 15 30.12 1020 10 16.09344 0 0
3:52 am 03:52 Partly Cloudy 78 25.6 63 17.2 60 60 NE 10 17 30.12 1020 10 16.09344 0 0
4:52 am 04:52 Mostly Cloudy 77 25 63 17.2 62 62 NNE 8 13 30.12 1020 10 16.09344 0 0
5:52 am 05:52 Partly Cloudy 76 24.4 62 16.7 62 62 NNE 8 13 30.12 1020 10 16.09344 0 0
6:52 am 06:52 Partly Cloudy 75 23.9 62 16.7 64 64 N 10 17 30.15 1021 10 16.09344 0 0
7:52 am 07:52 Partly Cloudy 76 24.4 61 16.1 60 60 NE 10 17 30.15 1021 10 16.09344 0 0
8:52 am 08:52 Partly Cloudy 78 25.6 63 17.2 60 60 NE 9 15 30.15 1021 10 16.09344 0 0
9:52 am 09:52 Partly Cloudy 80 26.7 63 17.2 56 56 NE 9 15 30.15 1021 10 16.09344 0 0
10:52 am 10:52 Mostly Sunny 83 28.3 65 18.3 55 55 NE 6 9 30.15 1021 10 16.09344 0 0
11:52 am 11:52 Mostly Sunny 86 30 64 17.8 48 48 ENE 5 7 30.12 1020 10 16.09344 0 0
12:52 pm 12:52 Mostly Sunny 88 31.1 63 17.2 43 43 N 6 9 30.12 1020 10 16.09344 0 0
1:52 pm 13:52 Partly Cloudy 89 31.7 63 17.2 42 42 E 3 6 30.09 1019 10 16.09344 0 0
2:52 pm 14:52 Partly Cloudy 89 31.7 62 16.7 41 41 ENE 3 6 30.09 1019 10 16.09344 0 0
3:52 pm 15:52 Mostly Cloudy 89 31.7 61 16.1 39 39 E 3 6 30.06 1018 10 16.09344 0 0
4:52 pm 16:52 Mostly Cloudy 90 32.2 62 16.7 39 39 NNE 5 7 30.03 1017 10 16.09344 0 0
5:52 pm 17:52 Mostly Cloudy 87 30.6 67 19.4 51 51 ESE 12 19 30.03 1017 10 16.09344 0 0
6:52 pm 18:52 Mostly Cloudy 85 29.4 65 18.3 51 51 E 9 15 30.03 1017 10 16.09344 0 0
7:52 pm 19:52 Mostly Cloudy 82 27.8 63 17.2 53 53 Calm 30.03 1017 10 16.09344 0 0
8:52 pm 20:52 Partly Cloudy 82 27.8 62 16.7 51 51 SE 5 7 30.03 1017 10 16.09344 0 0
9:52 pm 21:52 Partly Cloudy 80 26.7 65 18.3 60 60 SE 3 6 30.06 1018 10 16.09344 0 0
10:52 pm 22:52 Partly Cloudy 79 26.1 66 18.9 65 65 S 3 6 30.06 1018 10 16.09344 0 0
11:52 pm 23:52 Partly Cloudy 78 25.6 65 18.3 64 64 Calm 30.06 1018 10 16.09344 0 0

Powered by AerisWeather